Regional Weather Roundup
Issued by NWS

Home | Current Version | Previous Version | Graphics & Text | Print | Product List | Glossary On
Versions: 1 2 3 4 5 6 7 8 9 10 11 12 13 14 15 16 17 18 19 20 21 22 23 24 25 26 27 28 29 30 31 32 33 34 35 36 37 38 39 40 41 42 43 44 45 46 47 48 49 50
000
ASUS45 KABQ 170210
RWRNM
NEW MEXICO REGIONAL WEATHER ROUNDUP
NATIONAL WEATHER SERVICE ALBUQUERQUE NM
800 PM MDT WED AUG 16 2017

NOTE: "FAIR" MEANS FEW OR NO CLOUDS BELOW 12,000 FEET AGL WITH NO
       SIGNIFICANT WEATHER OR OBSTRUCTIONS TO VISION.

      THIS PRODUCT IS RELEASED AS TWO VERSIONS.  ONE VERSION NEAR
      THE TOP OF THE HOUR CONTAINING PRELIMINARY DATA FROM ALBUQUERQUE
      AND OTHER STATIONS.  A FINAL VERSION WITH ADDITIONAL DATA IS
      ISSUED ABOUT 10 MINUTES AFTER THE HOUR.

NMZ501-503-504-510>518-170300-
NORTHWEST PLATEAU/NORTHCENTRAL MOUNTAINS

CITY           SKY/WX    TMP DP  RH WIND       PRES   REMARKS
FARMINGTON     FAIR      79  25  13 NW6       30.09S
LOS ALAMOS     FAIR      74  26  17 W8        30.23R
SANTA FE       FAIR      75  28  17 W9        30.16R
TAOS           FAIR      71  35  26 SW6       30.24R
ANGEL FIRE     FAIR      56  40  55 CALM      30.33R

$$
NMZ402-403-502-505>509-170300-
WESTCENTRAL MOUNTAINS/SOUTHWEST MOUNTAINS

CITY           SKY/WX    TMP DP  RH WIND       PRES   REMARKS
GALLUP         FAIR      75  32  20 SW9       30.19R
GRANTS         FAIR      74  23  14 W7        30.21R
SILVER CITY    FAIR      77  30  18 W7        30.14R

$$
NMZ407-409-411-412-170300-
SOUTHERN DESERTS

CITY           SKY/WX    TMP DP  RH WIND       PRES   REMARKS
DEMING         FAIR      83  39  21 SW6       30.05S
LAS CRUCES     FAIR      84  41  22 W8        30.07R
HOLLOMAN AFB   FAIR      88  44  21 S3        30.03S
ALAMOGORDO     FAIR      86  39  19 CALM      30.03S
T OR C         FAIR      86  40  19 S8        30.04S

$$
NMZ519>523-170300-
CENTRAL VALLEYS/CENTRAL HIGHLANDS

CITY           SKY/WX    TMP DP  RH WIND       PRES   REMARKS
ALBUQUERQUE    FAIR      85  35  16 SW10      30.09R
DOUBLE EAGLE   PTCLDY    79  37  22 SW7       30.13R
MORIARTY ARPT  FAIR      75  41  29 CALM      30.18R
CLINES CORNERS FAIR      66  38  35 SW12      30.24R
BELEN          FAIR      81  35  19 S8        30.08S
SOCORRO        MOCLDY    82  40  23 S3        30.06R

$$
NMZ524>526-539-540-170300-
SOUTHCENTRAL MOUNTAINS

CITY           SKY/WX    TMP DP  RH WIND       PRES   REMARKS
RUIDOSO        FAIR      70  41  35 SW10      30.25R

$$
NMZ527>531-170300-
NORTHEAST HIGHLANDS/NORTHEAST PLAINS

CITY           SKY/WX    TMP DP  RH WIND       PRES   REMARKS
LAS VEGAS      MOCLDY    74  37  26 SW3       30.21R
RATON          FAIR      69  46  43 S5        30.16R
CLAYTON        FAIR      65  57  75 E8        30.11R

$$
NMZ532>537-170300-
EASTCENTRAL PLAINS

CITY           SKY/WX    TMP DP  RH WIND       PRES   REMARKS
SANTA ROSA     FAIR      79  37  22 SW5       30.05R
TUCUMCARI      FAIR      77  53  43 E9        30.02R
CANNON AFB     FAIR      74  63  66 E10       30.08R
CLOVIS AIRPORT NOT AVBL

$$
NMZ028-029-538-170300-
SOUTHEAST PLAINS

CITY           SKY/WX    TMP DP  RH WIND       PRES   REMARKS
ROSWELL        FAIR      85  50  29 SE5       29.97R
ARTESIA        FAIR      86  50  28 S8        29.97R
CARLSBAD       FAIR      86  57  37 SE5       29.95R
HOBBS          FAIR      81  52  36 E7        30.01R


$$



USA.gov is the U.S. government's official web portal to all federal, state and local government web resources and services.